Content
SEND FEEDBACK

Daily
Averages
Monthly
Summary
United States of America

PITKIN, COLORADO


Home > North America > United States > Colorado
Elevation: 9944 feet     Latitude: 38 36N     Longitude: 106 32W

WEATHER
 
SELECT A DAY
Number of Records: 272,011;   Date Range: 8/29/01 - 8/30/14
 
SHARE

PRINT THIS DATA

[ ← Previous Day ]
WEATHER ALMANAC - JANUARY 3, 2013
[ Next Day → ]
[ °C ]   °F
Weather ElementAverageHighLow
Temperature8.9 °F14 °F (1:16 pm)-2.2 °F (12:56 am)
Dewpoint-17.7 °F-5.8 °F (9:56 pm)-25.6 °F (7:36 am)
Humidity31.3 %71 % (1:16 am)17 % (2:56 pm)
Barometer30.20 in30.25 in (7:36 pm)30.13 in (12:36 am)
Wind Speed9.9 mph18.4 mph (11:16 am)
Wind Gust21.9 mph (11:36 am)
Weather ElementAverage
Wind DirectionNNE (37.9 °)

Weather ElementTotal
Precipitation---
Heating Degree Days59.1 (Base 65)
Averaged from 70 records on January 3, 2013
WEATHER CONDITIONS BREAKOUT
WIND DIRECTION BREAKOUT
WEATHER BY HOUR - JANUARY 3, 2013
[ °C ]   °F
Local TimeTemperatureDewpointHumidityBarometerVisibilityWind DirectionWind SpeedGust SpeedPrecipitationEventsConditions
12:36 AM-0.4 °F-13.0 °F55 %30.13 inNorthClear
12:56 AM-2.2 °F-11.2 °F66 %30.13 inNorthClear
1:16 AM-2.2 °F-9.4 °F71 %30.13 inNorthClear
1:36 AM-0.4 °F-13.0 °F55 %30.13 inNorthClear
1:56 AM1.4 °F-14.8 °F47 %30.14 inCalmClear
2:16 AM-0.4 °F-14.8 °F51 %30.14 inNNE (20°)4.6 mphClear
2:36 AM-0.4 °F-14.8 °F51 %30.15 inNorthClear
2:56 AM-0.4 °F-14.8 °F51 %30.15 inNorthClear
3:16 AM-0.4 °F-14.8 °F51 %30.15 inNorthClear
3:36 AM-0.4 °F-14.8 °F51 %30.15 inNorthClear
3:56 AM-0.4 °F-14.8 °F51 %30.15 inNorthClear
4:16 AM1.4 °F-18.4 °F39 %30.14 inNNW (340°)3.5 mphClear
4:36 AM1.4 °F-18.4 °F39 %30.15 inNorthClear
4:56 AM1.4 °F-20.2 °F36 %30.15 inNNE (20°)8.1 mphClear
5:16 AM3.2 °F-22.0 °F30 %30.14 inNE (40°)6.9 mphClear
5:36 AM3.2 °F-23.8 °F28 %30.15 inEast (90°)6.9 mphClear
5:56 AM3.2 °F-22.0 °F30 %30.15 inEast (80°)13.8 mphClear
6:16 AM3.2 °F-22.0 °F30 %30.16 inENE (70°)9.2 mphClear
6:36 AM3.2 °F-23.8 °F28 %30.17 inEast (80°)6.9 mphClear
6:56 AM3.2 °F-23.8 °F28 %30.17 inEast (80°)8.1 mphClear
7:16 AM3.2 °F-23.8 °F28 %30.17 inEast (80°)6.9 mphClear
7:36 AM3.2 °F-25.6 °F25 %30.17 inEast (90°)5.8 mphClear
7:56 AM3.2 °F-25.6 °F25 %30.18 inENE (70°)9.2 mphClear
8:36 AM6.8 °F-25.6 °F21 %30.20 inEast (80°)9.2 mphClear
8:56 AM6.8 °F-25.6 °F21 %30.20 inEast (80°)10.4 mphClear
9:16 AM8.6 °F-25.6 °F20 %30.21 inEast (80°)9.2 mphClear
9:36 AM8.6 °F-25.6 °F20 %30.22 inEast (90°)10.4 mphClear
9:56 AM8.6 °F-25.6 °F20 %30.23 inENE (70°)9.2 mphClear
10:16 AM8.6 °F-23.8 °F22 %30.23 inEast (80°)6.9 mphClear
10:36 AM10.4 °F-22.0 °F22 %30.23 inEast (80°)15.0 mphClear
10:56 AM10.4 °F-22.0 °F22 %30.22 inENE (70°)13.8 mphClear
11:16 AM12.2 °F-22.0 °F20 %30.22 inENE (70°)18.4 mphClear
11:36 AM12.2 °F-22.0 °F20 %30.22 inEast (80°)16.1 mph21.9 mphClear
11:56 AM12.2 °F-22.0 °F20 %30.22 inENE (70°)13.8 mph19.6 mphClear
12:16 PM12.2 °F-22.0 °F20 %30.21 inENE (70°)12.7 mphClear
12:36 PM12.2 °F-20.2 °F22 %30.20 inEast (80°)10.4 mphClear
12:56 PM12.2 °F-22.0 °F20 %30.20 inENE (70°)11.5 mphClear
1:16 PM14.0 °F-18.4 °F22 %30.20 inENE (70°)11.5 mphClear
1:36 PM14.0 °F-18.4 °F22 %30.20 inENE (70°)13.8 mphClear
1:56 PM14.0 °F-20.2 °F21 %30.20 inENE (70°)12.7 mphClear
2:16 PM14.0 °F-22.0 °F19 %30.20 inENE (60°)12.7 mphClear
2:36 PM14.0 °F-22.0 °F19 %30.20 inENE (60°)10.4 mphClear
2:56 PM14.0 °F-23.8 °F17 %30.20 inENE (60°)12.7 mphClear
3:16 PM14.0 °F-23.8 °F17 %30.21 inENE (60°)9.2 mphClear
3:36 PM14.0 °F-23.8 °F17 %30.21 inENE (70°)5.8 mphClear
3:56 PM12.2 °F-7.6 °F41 %30.21 inNorthClear
4:16 PM12.2 °F-13.0 °F32 %30.22 inNorthClear
4:36 PM12.2 °F-23.8 °F19 %30.22 inNorthClear
4:56 PM12.2 °F-25.6 °F17 %30.22 inNorthClear
5:16 PM12.2 °F-23.8 °F19 %30.22 inNorthClear
5:36 PM12.2 °F-23.8 °F19 %30.22 inNorthClear
5:56 PM14.0 °F-20.2 °F21 %30.23 inNorthClear
6:16 PM14.0 °F-18.4 °F22 %30.23 inNorthClear
6:36 PM14.0 °F-16.6 °F25 %30.23 inNorthClear
6:56 PM14.0 °F-14.8 °F27 %30.24 inNorthClear
7:16 PM14.0 °F-13.0 °F29 %30.23 inNorthClear
7:36 PM14.0 °F-13.0 °F29 %30.25 inNorthClear
7:56 PM14.0 °F-13.0 °F29 %30.25 inNorthClear
8:16 PM14.0 °F-13.0 °F29 %30.24 inNorthClear
8:36 PM14.0 °F-9.4 °F35 %30.24 inNorthClear
8:56 PM14.0 °F-9.4 °F35 %30.25 inNorthClear
9:16 PM14.0 °F-9.4 °F35 %30.25 inNorthClear
9:36 PM14.0 °F-7.6 °F38 %30.25 inNorthClear
9:56 PM14.0 °F-5.8 °F41 %30.25 inNorthClear
10:16 PM14.0 °F-7.6 °F38 %30.24 inNorthClear
10:36 PM14.0 °F-7.6 °F38 %30.24 inNorthClear
10:56 PM14.0 °F-7.6 °F38 %30.24 inNorthClear
11:16 PM14.0 °F-5.8 °F41 %30.23 inNorthClear
11:36 PM14.0 °F-5.8 °F41 %30.23 inNorthClear
11:56 PM14.0 °F-5.8 °F41 %30.23 inNorthClear
Hourly data recorded from KMYP, located miles away from Pitkin, Colorado







STORIES FROM OUR PARTNERS